When you browse on this site, cookies collect data to enhance your experience and personalize the content and advertising you see.
Visit our Privacy Policy to learn more. By continuing to use the site, you agree to this use of cookies and data.
  • En España
  • Lista de países
  • Para 7 días
  • Temperatura del agua
  • Mapa Satelital
  • El tiempo en el mapa
  • Informadores
  • user-avatar
    Iniciar sesión

    Tiempo cada hora Saidpur

    Hoy, 16 Enero, Miércoles

    Tiempo Temperatura Precipitaciones Viento Presión Humedad
    00:00 +16°C° 0 mm 3 mps 760 mmHg 52%
    01:00 +16°C° 0 mm 2 mps 760 mmHg 52%
    02:00 +16°C° 0 mm 2 mps 760 mmHg 53%
    03:00 +15°C° 0 mm 2 mps 760 mmHg 53%
    04:00 +15°C° 0 mm 2 mps 760 mmHg 54%
    05:00 +15°C° 0 mm 2 mps 760 mmHg 55%
    06:00 +14°C° 0 mm 1 mps 760 mmHg 56%
    07:00 +15°C° 0 mm 1 mps 760 mmHg 54%
    08:00 +18°C° 0 mm 1 mps 761 mmHg 51%
    09:00 +19°C° 0 mm 1 mps 761 mmHg 49%
    10:00 +21°C° 0 mm 1 mps 761 mmHg 44%
    11:00 +23°C° 0 mm 2 mps 760 mmHg 40%
    12:00 +25°C° 0 mm 1 mps 760 mmHg 35%
    13:00 +26°C° 0 mm 1 mps 760 mmHg 33%
    14:00 +24°C° 0 mm 0 mps 759 mmHg 31%
    15:00 +25°C° 0 mm 0 mps 758 mmHg 29%
    16:00 +24°C° 0 mm 0 mps 758 mmHg 32%
    17:00 +25°C° 0 mm 1 mps 758 mmHg 34%
    18:00 +23°C° 0 mm 1 mps 758 mmHg 39%
    19:00 +22°C° 0 mm 1 mps 758 mmHg 40%
    20:00 +21°C° 0 mm 2 mps 758 mmHg 42%
    21:00 +20°C° 0 mm 2 mps 759 mmHg 43%
    22:00 +20°C° 0 mm 2 mps 759 mmHg 44%
    23:00 +19°C° 0 mm 2 mps 759 mmHg 46%

    Mañana, 17 Enero, Jueves

    Tiempo Temperatura Precipitaciones Viento Presión Humedad
    00:00 +18°C° 0 mm 2 mps 759 mmHg 47%
    01:00 +18°C° 0 mm 2 mps 759 mmHg 48%
    02:00 +18°C° 0 mm 2 mps 758 mmHg 50%
    03:00 +17°C° 0 mm 2 mps 758 mmHg 51%
    04:00 +17°C° 0 mm 2 mps 758 mmHg 53%
    05:00 +17°C° 0 mm 2 mps 758 mmHg 55%
    06:00 +16°C° 0 mm 2 mps 758 mmHg 57%
    07:00 +17°C° 0 mm 2 mps 758 mmHg 54%
    08:00 +19°C° 0 mm 2 mps 758 mmHg 52%
    09:00 +20°C° 0 mm 3 mps 759 mmHg 49%
    10:00 +21°C° 0 mm 3 mps 759 mmHg 46%
    11:00 +24°C° 0 mm 2 mps 758 mmHg 44%
    12:00 +25°C° 0 mm 2 mps 758 mmHg 41%
    13:00 +26°C° 0 mm 2 mps 758 mmHg 38%
    14:00 +27°C° 0 mm 1 mps 757 mmHg 35%
    15:00 +28°C° 0 mm 1 mps 756 mmHg 33%
    16:00 +25°C° 0 mm 0 mps 756 mmHg 35%
    17:00 +23°C° 0 mm 0 mps 756 mmHg 37%
    18:00 +22°C° 0 mm 0 mps 756 mmHg 40%
    19:00 +24°C° 0 mm 1 mps 757 mmHg 41%
    20:00 +23°C° 0 mm 1 mps 757 mmHg 43%
    21:00 +22°C° 0 mm 1 mps 757 mmHg 45%
    22:00 +22°C° 0 mm 1 mps 758 mmHg 47%
    23:00 +21°C° 0 mm 1 mps 758 mmHg 50%

    Pasado mañana, 18 Enero, Viernes

    Tiempo Temperatura Precipitaciones Viento Presión Humedad
    00:00 +20°C° 0 mm 2 mps 758 mmHg 52%
    01:00 +19°C° 0 mm 2 mps 758 mmHg 54%
    02:00 +20°C° 0 mm 1 mps 757 mmHg 56%
    03:00 +19°C° 0 mm 1 mps 757 mmHg 58%
    04:00 +19°C° 0 mm 1 mps 757 mmHg 58%
    05:00 +17°C° 0 mm 2 mps 757 mmHg 57%
    06:00 +17°C° 0 mm 2 mps 758 mmHg 57%
    07:00 +18°C° 0 mm 2 mps 758 mmHg 52%
    08:00 +19°C° 0 mm 2 mps 759 mmHg 46%
    09:00 +20°C° 0 mm 2 mps 760 mmHg 41%
    10:00 +23°C° 0 mm 2 mps 760 mmHg 38%
    11:00 +24°C° 0 mm 2 mps 759 mmHg 35%
    12:00 +26°C° 0 mm 2 mps 759 mmHg 32%
    13:00 +27°C° 0 mm 2 mps 758 mmHg 31%
    14:00 +27°C° 0 mm 2 mps 758 mmHg 30%
    15:00 +28°C° 0 mm 1 mps 757 mmHg 28%
    16:00 +27°C° 0 mm 1 mps 757 mmHg 31%
    17:00 +25°C° 0 mm 1 mps 757 mmHg 33%
    18:00 +24°C° 0 mm 1 mps 757 mmHg 35%
    19:00 +24°C° 0 mm 1 mps 757 mmHg 36%
    20:00 +23°C° 0 mm 1 mps 758 mmHg 38%
    21:00 +22°C° 0 mm 1 mps 758 mmHg 39%
    22:00 +22°C° 0 mm 1 mps 758 mmHg 41%
    23:00 +20°C° 0 mm 2 mps 759 mmHg 44%

    19 Enero, Sábado

    Tiempo Temperatura Precipitaciones Viento Presión Humedad
    00:00 +19°C° 0 mm 2 mps 759 mmHg 46%
    01:00 +20°C° 0 mm 1 mps 758 mmHg 47%
    02:00 +19°C° 0 mm 1 mps 758 mmHg 48%
    03:00 +19°C° 0 mm 1 mps 758 mmHg 50%
    04:00 +18°C° 0 mm 1 mps 758 mmHg 50%
    05:00 +18°C° 0 mm 1 mps 758 mmHg 49%
    06:00 +16°C° 0 mm 1 mps 758 mmHg 49%
    07:00 +18°C° 0 mm 1 mps 759 mmHg 45%
    08:00 +19°C° 0 mm 2 mps 760 mmHg 41%
    09:00 +20°C° 0 mm 2 mps 761 mmHg 37%
    10:00 +21°C° 0 mm 2 mps 760 mmHg 34%
    11:00 +24°C° 0 mm 2 mps 760 mmHg 30%
    12:00 +26°C° 0 mm 2 mps 759 mmHg 27%
    13:00 +26°C° 0 mm 2 mps 759 mmHg 25%
    14:00 +27°C° 0 mm 2 mps 758 mmHg 24%
    15:00 +27°C° 0 mm 2 mps 757 mmHg 23%
    16:00 +26°C° 0 mm 2 mps 757 mmHg 25%
    17:00 +25°C° 0 mm 1 mps 757 mmHg 27%
    18:00 +24°C° 0 mm 1 mps 758 mmHg 29%
    19:00 +23°C° 0 mm 1 mps 758 mmHg 30%
    20:00 +22°C° 0 mm 1 mps 759 mmHg 32%
    21:00 +22°C° 0 mm 1 mps 759 mmHg 33%
    22:00 +21°C° 0 mm 1 mps 759 mmHg 36%
    23:00 +20°C° 0 mm 2 mps 759 mmHg 39%

    20 Enero, Domingo

    Tiempo Temperatura Precipitaciones Viento Presión Humedad
    00:00 +19°C° 0 mm 2 mps 759 mmHg 42%
    01:00 +18°C° 0 mm 2 mps 759 mmHg 44%
    02:00 +19°C° 0 mm 1 mps 758 mmHg 46%
    03:00 +18°C° 0 mm 1 mps 758 mmHg 49%
    04:00 +18°C° 0 mm 1 mps 758 mmHg 49%
    05:00 +18°C° 0 mm 1 mps 758 mmHg 49%
    06:00 +16°C° 0 mm 1 mps 758 mmHg 49%
    07:00 +19°C° 0 mm 1 mps 759 mmHg 45%
    08:00 +20°C° 0 mm 1 mps 760 mmHg 42%
    09:00 +20°C° 0 mm 2 mps 761 mmHg 38%
    10:00 +21°C° 0 mm 2 mps 760 mmHg 34%
    11:00 +24°C° 0 mm 2 mps 760 mmHg 30%
    12:00 +26°C° 0 mm 2 mps 760 mmHg 26%
    13:00 +26°C° 0 mm 1 mps 759 mmHg 25%
    14:00 +27°C° 0 mm 1 mps 758 mmHg 25%
    15:00 +27°C° 0 mm 1 mps 757 mmHg 24%
    16:00 +26°C° 0 mm 1 mps 757 mmHg 26%
    17:00 +25°C° 0 mm 1 mps 757 mmHg 29%
    18:00 +24°C° 0 mm 1 mps 757 mmHg 31%
    19:00 +23°C° 0 mm 1 mps 758 mmHg 33%
    20:00 +23°C° 0 mm 1 mps 759 mmHg 34%
    21:00 +22°C° 0 mm 1 mps 759 mmHg 36%
    22:00 +21°C° 0 mm 1 mps 759 mmHg 38%
    23:00 +21°C° 0 mm 1 mps 759 mmHg 40%

    21 Enero, Lunes

    Tiempo Temperatura Precipitaciones Viento Presión Humedad
    00:00 +20°C° 0 mm 1 mps 759 mmHg 42%
    01:00 +20°C° 0 mm 1 mps 759 mmHg 44%
    02:00 +19°C° 0 mm 1 mps 758 mmHg 45%
    03:00 +19°C° 0 mm 1 mps 758 mmHg 47%
    04:00 +18°C° 0 mm 1 mps 758 mmHg 48%
    05:00 +18°C° 0 mm 1 mps 758 mmHg 48%
    06:00 +18°C° 0 mm 1 mps 758 mmHg 48%
    07:00 +19°C° 0 mm 1 mps 759 mmHg 45%
    08:00 +19°C° 0 mm 2 mps 760 mmHg 41%
    09:00 +20°C° 0 mm 2 mps 761 mmHg 38%
    10:00 +23°C° 0 mm 2 mps 760 mmHg 34%
    11:00 +24°C° 0 mm 2 mps 760 mmHg 30%
    12:00 +26°C° 0 mm 2 mps 760 mmHg 27%
    13:00 +27°C° 0 mm 2 mps 759 mmHg 26%
    14:00 +27°C° 0 mm 2 mps 758 mmHg 24%
    15:00 +28°C° 0 mm 1 mps 757 mmHg 23%
    16:00 +26°C° 0 mm 1 mps 757 mmHg 26%
    17:00 +25°C° 0 mm 1 mps 757 mmHg 28%
    18:00 +24°C° 0 mm 1 mps 757 mmHg 30%
    19:00 +23°C° 0 mm 1 mps 758 mmHg 31%
    20:00 +23°C° 0 mm 1 mps 758 mmHg 33%
    21:00 +22°C° 0 mm 1 mps 759 mmHg 34%
    22:00 +22°C° 0 mm 1 mps 759 mmHg 35%
    23:00 +21°C° 0 mm 1 mps 758 mmHg 36%
    Mostrar más